Regional Weather Roundup
Issued by NWS Sioux Falls, SD

Home | Current Version | Previous Version | Text Only | Print | Product List | Glossary On
Versions: 1 2 3 4 5 6 7 8 9 10 11 12 13 14 15 16 17 18 19 20 21 22 23 24 25 26 27 28 29 30 31 32 33 34 35 36 37 38 39 40 41 42 43 44 45 46 47 48 49 50
000
ASUS43 KFSD 302110
RWRFSD

WEATHER ROUNDUP FOR SE SOUTH DAKOTA/SW MINNESOTA/NW IOWA
NATIONAL WEATHER SERVICE SIOUX FALLS SD
400 PM CDT SAT APR 30 2016

NOTE: "FAIR" INDICATES FEW OR NO CLOUDS BELOW 12,000 FEET WITH NO
SIGNIFICANT WEATHER AND OR OBSTRUCTIONS TO VISIBILITY.


SDZ038>040-050-052>070-302200-
SOUTHEAST SOUTH DAKOTA

CITY           SKY/WX    TMP DP  RH WIND       PRES   REMARKS
BROOKINGS      CLOUDY    49  37  63 NE21G29   29.96F
CHAMBERLAIN    RAIN      46  42  88 NE20G29   29.99R
HURON          CLOUDY    50  37  61 E20       30.01R
MADISON        MIX PCPN  45  45 100 E24G35    29.95S
MITCHELL       RAIN      46  42  86 NE22G29   29.97R FOG
SIOUX FALLS    LGT RAIN  45  40  82 NE25G37   29.92R
WINNER         RAIN      44  39  82 NE28G35   29.96S
YANKTON        CLOUDY    45  43  93 NE20G31   29.86S
$$

MNZ071-072-080-081-089-090-097-098-302200-
SOUTHWEST MINNESOTA

CITY           SKY/WX    TMP DP  RH WIND       PRES   REMARKS
FAIRMONT       CLOUDY    43  34  70 NE20G26   29.97F
JACKSON        LGT SNOW  43  41  93 NE30G37   29.95F
LUVERNE        CLOUDY    43  37  81 E26G33    29.93R
MARSHALL       CLOUDY    52  37  56 E16G23    30.00F
MONTEVIDEO     PTSUNNY   55  36  47 E18G25    30.05S
REDWOOD FALLS  CLOUDY    54  34  46 E14G26    30.01F
TRACY          DRIZZLE   48  40  73 E16G26    30.00F
WINDOM         RAIN      45  39  81 E24G31    29.98F
WORTHINGTON    CLOUDY    43  40  89 NE37G44   29.88S
$$

IAZ001>003-012>014-020>022-031-032-NEZ013-014-SDZ071-302200-
NORTHWEST IOWA

CITY           SKY/WX    TMP DP  RH WIND       PRES   REMARKS
CHEROKEE       CLOUDY    46  44  94 NE21G31   29.87R
DENISON        CLOUDY    46  46 100 E22G29    29.78R FOG
ESTHERVILLE    CLOUDY    43  41  93 NE30G39   29.92F
LE MARS        CLOUDY    46  45  93 NE16G23   29.86S
ORANGE CITY    CLOUDY    45  41  87 E18G28    29.87R
SHELDON        CLOUDY    45  43  93 E30G38    29.87R
SIOUX CITY     LGT RAIN  49  44  83 E22G30    29.83R
SPENCER        CLOUDY    44  40  85 E35G44    29.88R
STORM LAKE     CLOUDY    45  43  93 E24G36    29.85R
$$

ABBREVIATIONS USED IN REMARKS
   TC - TEMPERATURE IN CELSIUS
  WCI - WIND CHILL INDEX
   HX - HEAT INDEX
  VSB - VISIBILITY





USA.gov is the U.S. government's official web portal to all federal, state and local government web resources and services.